Location: Orange Harbor Mobile Home Park
(26.6923°N, 81.7937°W)
Time: 02:21:29
(UTC+00:00)

Tiangong - Pass Details

Date: 27 June 2021
Orbit: 373 x 386 km, 41.5° (Epoch: 02 August)

Event Time Altitude Azimuth Distance (km) Brightness Sun altitude
Rises 09:51:41 0° 320° (NW) 2,239 4.9 -9.5°
Reaches altitude 10° 09:54:25 10° 346° (NNW) 1,390 4.1 -9.0°
Maximum altitude 09:56:15 14° 22° (NNE) 1,158 4.3 -8.6°
Drops below altitude 10° 09:58:06 10° 58° (ENE) 1,394 5.6 -8.3°
Sets 10:00:51 0° 84° (E) 2,249 6.3 -7.7°
